User: anonymous   Login
Location: Unspecified
(0.0000°N, 0.0000°E)
Time: 04:02:31
(UTC+00:00)
Language:

CLOUDSAT - Orbit

View from above orbital plane
View from above orbital plane
View from above satellite
View from above satellite

Ground track
Ground track

The orbit data is extracted from the following two-line orbital elements,

1 29107U 06016A   16210.65553602 -.00000039  00000-0  13621-5 0  9995
2 29107  98.2003 153.2344 0001393  46.6114 313.5200 14.57105560545319
Epoch (UTC): 28 July 2016 15:43:58
Eccentricity: 0.0001393
inclination: 98.2003°
perigee height: 701 km
apogee height: 703 km
right ascension of ascending node: 153.2344°
argument of perigee: 46.6114°
revolutions per day: 14.57105560
mean anomaly at epoch: 313.5200°
orbit number at epoch: 54531

The dashed part of the orbit path shows where the satellite is in the earth's shadow,  

DLR